Regional Weather Roundup
Issued by NWS

Home | Current Version | Previous Version | Text Only | Print | Product List | Glossary Off
Versions: 1 2 3 4 5 6 7 8 9 10 11 12 13 14 15 16 17 18 19 20 21 22 23 24 25 26 27 28 29 30 31 32 33 34 35 36 37 38 39 40 41 42 43 44 45 46 47 48 49 50

000
ASUS45 KABQ 250501
RWRNM
NEW MEXICO REGIONAL WEATHER ROUNDUP
NATIONAL WEATHER SERVICE ALBUQUERQUE NM
1100 PM MDT MON APR 24 2017

NOTE: "FAIR" MEANS FEW OR NO CLOUDS BELOW 12,000 FEET AGL WITH NO
       SIGNIFICANT WEATHER OR OBSTRUCTIONS TO VISION.

      THIS PRODUCT IS RELEASED AS TWO VERSIONS.  ONE VERSION NEAR
      THE TOP OF THE HOUR CONTAINING PRELIMINARY DATA FROM ALBUQUERQUE
      AND OTHER STATIONS.  A FINAL VERSION WITH ADDITIONAL DATA IS
      ISSUED ABOUT 10 MINUTES AFTER THE HOUR.

NMZ501-503-504-510>518-250600-
NORTHWEST PLATEAU/NORTHCENTRAL MOUNTAINS

CITY           SKY/WX    TMP DP  RH WIND       PRES   REMARKS
FARMINGTON     FAIR      59  22  24 SW16      29.65F
LOS ALAMOS     MOCLDY    58  21  24 NW7G18    29.79S
SANTA FE       FAIR      63  20  19 W15       29.72S
TAOS             N/A     50  18  27 SE5       29.76F
ANGEL FIRE     FAIR      49  20  31 W24G36    29.76F

$$
NMZ402-403-502-505>509-250600-
WESTCENTRAL MOUNTAINS/SOUTHWEST MOUNTAINS

CITY           SKY/WX    TMP DP  RH WIND       PRES   REMARKS
GALLUP         FAIR      58  17  20 SW29G37   29.78F
GRANTS         FAIR      59  17  19 W13G20    29.82F
SILVER CITY    FAIR      63  19  18 W16       29.82F

$$
NMZ407-409-411-412-250600-
SOUTHERN DESERTS

CITY           SKY/WX    TMP DP  RH WIND       PRES   REMARKS
DEMING         FAIR      72  15  11 SW12      29.76R
LAS CRUCES     FAIR      74  18  12 W9        29.77R
ALAMOGORDO     FAIR      75  18  11 W8        29.74R
T OR C         FAIR      71  16  12 SW8       29.73R

$$
NMZ519>523-250600-
CENTRAL VALLEYS/CENTRAL HIGHLANDS

CITY           SKY/WX    TMP DP  RH WIND       PRES   REMARKS
ALBUQUERQUE    MOCLDY    68  17  14 SW10      29.74R
MORIARTY ARPT  CLOUDY    67  17  14 W12G28    29.77R
CLINES CORNERS MOCLDY    60  16  18 W21G29    29.78R
BELEN          FAIR      65  15  15 SW7       29.74R
SOCORRO        FAIR      69  15  12 W6        29.72R

$$
NMZ524>526-539-540-250600-
SOUTHCENTRAL MOUNTAINS

CITY           SKY/WX    TMP DP  RH WIND       PRES   REMARKS
RUIDOSO        NOT AVBL

$$
NMZ527>531-250600-
NORTHEAST HIGHLANDS/NORTHEAST PLAINS

CITY           SKY/WX    TMP DP  RH WIND       PRES   REMARKS
LAS VEGAS      FAIR      58  17  20 W21G29    29.67F
RATON          FAIR      55  21  26 SW10      29.62F
CLAYTON        FAIR      62  34  35 N9        29.54F

$$
NMZ532>537-250600-
EASTCENTRAL PLAINS

CITY           SKY/WX    TMP DP  RH WIND       PRES   REMARKS
SANTA ROSA     FAIR      61  20  20 W5        29.60F
TUCUMCARI      FAIR      70  20  15 SW13      29.51S
CANNON AFB     FAIR      64  19  17 SW8       29.58F
CLOVIS AIRPORT FAIR      63  21  20 SW10      29.58S

$$
NMZ028-029-538-250600-
SOUTHEAST PLAINS

CITY           SKY/WX    TMP DP  RH WIND       PRES   REMARKS
ROSWELL        FAIR      72  20  14 SW12        N/A
ARTESIA        FAIR      77  19  11 W15       29.62S
CARLSBAD       FAIR      82  14   8 W16       29.61S
HOBBS          FAIR      70  16  12 SW7       29.64F


$$



USA.gov is the U.S. government's official web portal to all federal, state and local government web resources and services.